LNI111 WMKK-WIMK

Flight info

Callsign LNI111
Flight time N/A
Altitude 30000
Route PUGER1D PUGER DCT RENAL DCT ROMEO DCT ISVUR DCT POLNA
Aircraft B739/M-SDE2E3FGHIRWXY/LB1

Departure

Time N/A
Airport Kuala Lumpur International Airport (WMKK)

Arrival

Time 2026-05-05 14:13
Airport Soewondo Air Force Base (WIMK)
Time Latitude Longitude Altitude Speed Heading
2026-05-05 14:00 3.20220 98.92070 16960 ft 406 kts 291°
2026-05-05 14:00 3.20887 98.90313 16431 ft 401 kts 291°
2026-05-05 14:00 3.22185 98.86896 15394 ft 393 kts 291°
2026-05-05 14:00 3.23150 98.84357 14628 ft 387 kts 291°
2026-05-05 14:01 3.24099 98.81861 13991 ft 388 kts 291°
2026-05-05 14:01 3.25055 98.79349 13575 ft 382 kts 291°
2026-05-05 14:01 3.25991 98.76884 13113 ft 377 kts 291°
2026-05-05 14:01 3.26917 98.74449 12574 ft 373 kts 291°
2026-05-05 14:02 3.27837 98.72028 12053 ft 371 kts 291°
2026-05-05 14:02 3.28745 98.69638 11549 ft 368 kts 291°
2026-05-05 14:02 3.29649 98.67261 11096 ft 363 kts 291°
2026-05-05 14:02 3.30532 98.64934 10915 ft 351 kts 291°
2026-05-05 14:03 3.31380 98.62702 10684 ft 342 kts 291°
2026-05-05 14:03 3.32224 98.60480 10449 ft 333 kts 291°
2026-05-05 14:03 3.33029 98.58359 10210 ft 320 kts 291°
2026-05-05 14:03 3.33805 98.56319 9601 ft 318 kts 291°
2026-05-05 14:04 3.34606 98.54210 8846 ft 319 kts 291°
2026-05-05 14:04 3.35372 98.52193 8138 ft 319 kts 291°
2026-05-05 14:04 3.36305 98.50189 7409 ft 318 kts 306°
2026-05-05 14:04 3.37911 98.48692 6715 ft 316 kts 330°
2026-05-05 14:05 3.39952 98.47984 6016 ft 314 kts 354°
2026-05-05 14:05 3.42112 98.48148 5290 ft 312 kts 17°
2026-05-05 14:05 3.44017 98.49143 4581 ft 310 kts 39°
2026-05-05 14:05 3.45434 98.50744 3852 ft 309 kts 58°
2026-05-05 14:06 3.46445 98.52627 3291 ft 303 kts 64°
2026-05-05 14:06 3.47310 98.54468 3096 ft 285 kts 64°
2026-05-05 14:06 3.48140 98.56214 2981 ft 266 kts 64°
2026-05-05 14:06 3.48928 98.57826 2959 ft 252 kts 63°
2026-05-05 14:07 3.49703 98.59390 2959 ft 250 kts 63°
2026-05-05 14:07 3.50367 98.60727 2972 ft 252 kts 64°
2026-05-05 14:07 3.50778 98.62378 2946 ft 255 kts 92°
2026-05-05 14:07 3.50440 98.63785 2955 ft 254 kts 118°
2026-05-05 14:08 3.49314 98.65070 2951 ft 254 kts 148°
2026-05-05 14:08 3.47662 98.65625 2953 ft 253 kts 179°
2026-05-05 14:08 3.45956 98.65266 2963 ft 252 kts 209°
2026-05-05 14:08 3.44696 98.64148 2975 ft 251 kts 235°
2026-05-05 14:09 3.43871 98.62720 2972 ft 252 kts 243°
2026-05-05 14:09 3.43253 98.61163 2956 ft 252 kts 263°
2026-05-05 14:09 3.43561 98.59446 2980 ft 249 kts 300°
2026-05-05 14:09 3.44707 98.58197 2825 ft 244 kts 328°
2026-05-05 14:10 3.46159 98.57649 2665 ft 235 kts 352°
2026-05-05 14:10 3.47742 98.57803 2422 ft 226 kts 20°
2026-05-05 14:10 3.49037 98.58593 2187 ft 218 kts 44°
2026-05-05 14:10 3.49912 98.59783 1989 ft 208 kts 63°
2026-05-05 14:11 3.50447 98.61119 1633 ft 207 kts 68°
2026-05-05 14:11 3.51123 98.62368 1304 ft 198 kts 51°
2026-05-05 14:11 3.52089 98.63327 981 ft 189 kts 41°
2026-05-05 14:11 3.52992 98.64233 713 ft 179 kts 46°
2026-05-05 14:12 3.53811 98.65101 427 ft 165 kts 45°
2026-05-05 14:12 3.54565 98.65880 205 ft 146 kts 46°
2026-05-05 14:12 3.55205 98.66545 81 ft 129 kts 46°
2026-05-05 14:12 3.55751 98.67115 72 ft 94 kts 46°
2026-05-05 14:13 3.56095 98.67473 67 ft 50 kts 45°
2026-05-05 14:13 3.56285 98.67671 66 ft 38 kts 46°
2026-05-05 14:13 3.56424 98.67765 64 ft 19 kts
2026-05-05 14:13 3.56552 98.67768 62 ft 18 kts
2026-05-05 14:14 3.56598 98.67769 63 ft 6 kts
2026-05-05 14:14 3.56637 98.67769 61 ft 6 kts 360°
2026-05-05 14:14 3.56677 98.67769 61 ft 6 kts 360°
2026-05-05 14:14 3.56696 98.67769 61 ft 0 kts 360°